Time,TemperatureF,DewpointF,PressureIn,WindDirection,WindDirectionDegrees,WindSpeedMPH,WindSpeedGustMPH,Humidity,HourlyPrecipIn,Conditions,Clouds,dailyrainin,SoftwareType,DateUTC
2013-03-10 00:04:00,54.0,35.8,29.86,SSE,161,8.0,19.0,50,0.00,,,0.04,meteohub,2013-03-10 06:04:00,
2013-03-10 00:09:00,54.0,35.8,29.86,SE,142,10.0,18.0,50,0.00,,,0.00,meteohub,2013-03-10 06:09:00,
2013-03-10 00:15:00,54.1,36.0,29.86,SSE,161,9.0,18.0,50,0.00,,,0.00,meteohub,2013-03-10 06:15:00,
2013-03-10 00:20:00,54.1,36.0,29.86,SSE,159,11.0,21.0,50,0.00,,,0.00,meteohub,2013-03-10 06:20:00,
2013-03-10 00:25:00,54.3,36.5,29.86,SSW,203,5.0,21.0,51,0.00,,,0.00,meteohub,2013-03-10 06:25:00,
2013-03-10 00:30:00,54.3,36.5,29.86,SE,142,7.0,20.0,51,0.00,,,0.00,meteohub,2013-03-10 06:30:00,
2013-03-10 00:35:00,54.3,36.1,29.86,South,190,11.0,20.0,50,0.00,,,0.00,meteohub,2013-03-10 06:35:00,
2013-03-10 00:40:00,54.5,36.3,29.86,South,177,7.0,21.0,50,0.00,,,0.00,meteohub,2013-03-10 06:40:00,
2013-03-10 00:45:00,54.7,36.3,29.86,SSE,159,12.0,22.0,50,0.00,,,0.00,meteohub,2013-03-10 06:45:00,
2013-03-10 00:50:00,54.9,36.5,29.86,South,189,9.0,22.0,50,0.00,,,0.00,meteohub,2013-03-10 06:50:00,
2013-03-10 00:55:00,54.9,36.5,29.86,SSE,155,8.0,21.0,50,0.00,,,0.00,meteohub,2013-03-10 06:55:00,
2013-03-10 01:00:00,54.9,36.5,29.86,South,177,12.0,21.0,50,0.00,,,0.00,meteohub,2013-03-10 07:00:00,
2013-03-10 01:05:00,55.0,36.7,29.86,SSE,167,10.0,23.0,50,0.00,,,0.00,meteohub,2013-03-10 07:05:00,
2013-03-10 01:10:00,55.0,36.7,29.86,SSW,205,3.0,23.0,50,0.00,,,0.00,meteohub,2013-03-10 07:10:00,
2013-03-10 01:15:00,55.0,36.7,29.86,SSW,202,5.0,23.0,50,0.00,,,0.00,meteohub,2013-03-10 07:15:00,
2013-03-10 01:21:00,54.9,37.0,29.85,South,186,7.0,21.0,51,0.00,,,0.00,meteohub,2013-03-10 07:21:00,
2013-03-10 01:26:00,54.9,37.0,29.85,SW,217,7.0,21.0,51,0.00,,,0.00,meteohub,2013-03-10 07:26:00,
2013-03-10 01:31:00,55.0,36.7,29.85,South,186,7.0,21.0,50,0.00,,,0.00,meteohub,2013-03-10 07:31:00,
2013-03-10 01:36:00,55.0,37.2,29.85,SSE,167,8.0,21.0,51,0.00,,,0.00,meteohub,2013-03-10 07:36:00,
2013-03-10 01:41:00,55.2,36.9,29.84,South,180,10.0,21.0,50,0.00,,,0.00,meteohub,2013-03-10 07:41:00,
2013-03-10 01:46:00,55.2,37.4,29.84,South,175,6.0,18.0,51,0.00,,,0.00,meteohub,2013-03-10 07:46:00,
2013-03-10 01:51:00,55.0,37.2,29.84,SSE,157,9.0,18.0,51,0.00,,,0.00,meteohub,2013-03-10 07:51:00,
2013-03-10 01:56:00,55.0,37.2,29.83,SSE,163,16.0,21.0,51,0.00,,,0.00,meteohub,2013-03-10 07:56:00,
2013-03-10 03:01:00,55.0,37.8,29.83,SE,134,7.0,-999.0,52,-99.99,,,0.00,meteohub,2013-03-10 08:01:00,
2013-03-10 03:06:00,54.9,37.6,29.83,SE,124,6.0,-999.0,52,-99.99,,,0.00,meteohub,2013-03-10 08:06:00,
2013-03-10 03:11:00,54.9,37.6,29.83,South,180,7.0,-999.0,52,-99.99,,,0.00,meteohub,2013-03-10 08:11:00,
2013-03-10 03:16:00,54.7,37.4,29.83,South,177,11.0,-999.0,52,-99.99,,,0.00,meteohub,2013-03-10 08:16:00,
2013-03-10 03:21:00,54.9,37.6,29.83,SSE,167,9.0,-999.0,52,-99.99,,,0.00,meteohub,2013-03-10 08:21:00,
2013-03-10 03:26:00,54.9,37.6,29.82,South,169,4.0,-999.0,52,-99.99,,,0.00,meteohub,2013-03-10 08:26:00,
2013-03-10 03:31:00,54.7,37.9,29.82,South,174,8.0,-999.0,53,-99.99,,,0.00,meteohub,2013-03-10 08:31:00,
2013-03-10 03:36:00,54.7,37.9,29.82,ESE,110,5.0,-999.0,53,-99.99,,,0.00,meteohub,2013-03-10 08:36:00,
2013-03-10 03:41:00,54.7,37.9,29.81,SSE,157,13.0,-999.0,53,-99.99,,,0.00,meteohub,2013-03-10 08:41:00,
2013-03-10 03:46:00,54.7,38.3,29.81,SSE,164,6.0,-999.0,54,-99.99,,,0.00,meteohub,2013-03-10 08:46:00,
2013-03-10 03:52:00,54.3,37.9,29.82,SSW,200,9.0,-999.0,54,-99.99,,,0.00,meteohub,2013-03-10 08:52:00,
2013-03-10 03:57:00,54.3,37.9,29.82,SSW,213,11.0,-999.0,54,-99.99,,,0.00,meteohub,2013-03-10 08:57:00,
2013-03-10 04:02:00,54.1,38.3,29.82,SSE,165,2.0,-999.0,55,-99.99,,,0.00,meteohub,2013-03-10 09:02:00,
2013-03-10 04:07:00,54.1,38.3,29.82,SSE,166,4.0,-999.0,55,-99.99,,,0.00,meteohub,2013-03-10 09:07:00,
2013-03-10 04:12:00,54.1,38.8,29.82,SSE,167,6.0,-999.0,56,-99.99,,,0.00,meteohub,2013-03-10 09:12:00,
2013-03-10 04:17:00,54.0,39.0,29.83,SSW,194,6.0,-999.0,57,-99.99,,,0.00,meteohub,2013-03-10 09:17:00,
2013-03-10 04:22:00,53.8,38.8,29.83,SSW,192,10.0,-999.0,57,-99.99,,,0.00,meteohub,2013-03-10 09:22:00,
2013-03-10 04:27:00,53.8,39.4,29.83,SSW,192,11.0,-999.0,58,-99.99,,,0.00,meteohub,2013-03-10 09:27:00,
2013-03-10 04:32:00,53.4,39.0,29.83,South,186,16.0,-999.0,58,-99.99,,,0.00,meteohub,2013-03-10 09:32:00,
2013-03-10 04:37:00,53.4,39.4,29.83,SSW,196,6.0,-999.0,59,-99.99,,,0.00,meteohub,2013-03-10 09:37:00,
2013-03-10 04:42:00,53.2,39.2,29.83,South,184,3.0,-999.0,59,-99.99,,,0.00,meteohub,2013-03-10 09:42:00,
2013-03-10 04:47:00,53.2,39.7,29.83,SSW,205,6.0,-999.0,60,-99.99,,,0.00,meteohub,2013-03-10 09:47:00,
2013-03-10 04:52:00,53.2,39.7,29.83,SW,214,6.0,-999.0,60,-99.99,,,0.00,meteohub,2013-03-10 09:52:00,
2013-03-10 04:57:00,53.4,39.9,29.83,SW,214,7.0,-999.0,60,-99.99,,,0.00,meteohub,2013-03-10 09:57:00,
2013-03-10 05:02:00,53.6,40.1,29.84,SW,214,8.0,-999.0,60,-99.99,,,0.00,meteohub,2013-03-10 10:02:00,
2013-03-10 05:07:00,53.8,40.6,29.84,SSW,205,11.0,-999.0,61,-99.99,,,0.00,meteohub,2013-03-10 10:07:00,
2013-03-10 05:12:00,53.8,40.6,29.84,SSE,155,2.0,-999.0,61,-99.99,,,0.00,meteohub,2013-03-10 10:12:00,
2013-03-10 05:17:00,54.0,40.8,29.84,South,187,5.0,-999.0,61,-99.99,,,0.00,meteohub,2013-03-10 10:17:00,
2013-03-10 05:22:00,54.1,40.6,29.84,South,186,2.0,-999.0,60,-99.99,,,0.00,meteohub,2013-03-10 10:22:00,
2013-03-10 05:27:00,54.3,40.8,29.84,SSW,197,6.0,-999.0,60,-99.99,,,0.00,meteohub,2013-03-10 10:27:00,
2013-03-10 05:32:00,54.7,40.6,29.84,SSE,168,6.0,-999.0,59,-99.99,,,0.00,meteohub,2013-03-10 10:32:00,
2013-03-10 05:37:00,54.7,40.6,29.84,South,181,9.0,-999.0,59,-99.99,,,0.00,meteohub,2013-03-10 10:37:00,
2013-03-10 05:42:00,54.7,40.6,29.84,South,184,8.0,-999.0,59,-99.99,,,0.00,meteohub,2013-03-10 10:42:00,
2013-03-10 05:47:00,54.9,40.3,29.85,SSW,202,5.0,-999.0,58,-99.99,,,0.00,meteohub,2013-03-10 10:47:00,
2013-03-10 05:52:00,54.7,40.6,29.85,SSW,192,5.0,-999.0,59,-99.99,,,0.00,meteohub,2013-03-10 10:52:00,
2013-03-10 05:57:00,54.7,40.6,29.85,South,190,6.0,-999.0,59,-99.99,,,0.00,meteohub,2013-03-10 10:57:00,
2013-03-10 06:02:00,54.5,40.5,29.85,South,191,14.0,-999.0,59,-99.99,,,0.00,meteohub,2013-03-10 11:02:00,
2013-03-10 06:07:00,54.5,41.4,29.85,SSW,195,7.0,-999.0,61,-99.99,,,0.00,meteohub,2013-03-10 11:07:00,
2013-03-10 06:12:00,54.1,41.4,29.85,SSW,196,10.0,-999.0,62,-99.99,,,0.00,meteohub,2013-03-10 11:12:00,
2013-03-10 06:17:00,54.0,41.2,29.85,SSW,194,15.0,-999.0,62,-99.99,,,0.00,meteohub,2013-03-10 11:17:00,
2013-03-10 06:22:00,54.0,41.2,29.85,South,184,4.0,-999.0,62,-99.99,,,0.00,meteohub,2013-03-10 11:22:00,
2013-03-10 06:27:00,54.0,41.2,29.85,SSE,164,5.0,-999.0,62,-99.99,,,0.00,meteohub,2013-03-10 11:27:00,
2013-03-10 06:32:00,54.0,41.2,29.84,SSW,212,8.0,-999.0,62,-99.99,,,0.00,meteohub,2013-03-10 11:32:00,
2013-03-10 06:37:00,54.0,40.8,29.84,South,186,10.0,-999.0,61,-99.99,,,0.00,meteohub,2013-03-10 11:37:00,
2013-03-10 06:42:00,54.1,41.0,29.84,SSW,196,1.0,-999.0,61,-99.99,,,0.00,meteohub,2013-03-10 11:42:00,
2013-03-10 06:47:00,54.1,40.6,29.84,South,172,5.0,-999.0,60,-99.99,,,0.00,meteohub,2013-03-10 11:47:00,
2013-03-10 06:52:00,54.3,40.8,29.84,SSE,147,6.0,-999.0,60,-99.99,,,0.00,meteohub,2013-03-10 11:52:00,
2013-03-10 06:57:00,54.5,40.5,29.84,South,189,7.0,-999.0,59,-99.99,,,0.00,meteohub,2013-03-10 11:57:00,
2013-03-10 07:02:00,54.5,40.5,29.84,South,177,9.0,-999.0,59,-99.99,,,0.00,meteohub,2013-03-10 12:02:00,
2013-03-10 07:07:00,54.7,40.6,29.84,SSE,163,9.0,-999.0,59,-99.99,,,0.00,meteohub,2013-03-10 12:07:00,
2013-03-10 07:13:00,54.5,40.5,29.84,SSE,161,8.0,-999.0,59,-99.99,,,0.00,meteohub,2013-03-10 12:13:00,
2013-03-10 07:18:00,54.5,40.5,29.84,South,183,10.0,-999.0,59,-99.99,,,0.00,meteohub,2013-03-10 12:18:00,
2013-03-10 07:23:00,54.3,40.3,29.84,SSE,165,10.0,-999.0,59,-99.99,,,0.00,meteohub,2013-03-10 12:23:00,
2013-03-10 07:28:00,54.3,40.3,29.84,SSE,165,11.0,-999.0,59,-99.99,,,0.00,meteohub,2013-03-10 12:28:00,
2013-03-10 07:33:00,54.1,40.1,29.84,SSW,192,7.0,-999.0,59,-99.99,,,0.00,meteohub,2013-03-10 12:33:00,
2013-03-10 07:38:00,54.1,40.1,29.83,SSE,148,7.0,-999.0,59,-99.99,,,0.00,meteohub,2013-03-10 12:38:00,
2013-03-10 07:43:00,54.1,40.1,29.83,South,181,4.0,-999.0,59,-99.99,,,0.00,meteohub,2013-03-10 12:43:00,
2013-03-10 07:48:00,54.1,40.1,29.84,SSE,155,8.0,-999.0,59,-99.99,,,0.00,meteohub,2013-03-10 12:48:00,
2013-03-10 07:53:00,54.3,40.3,29.83,SSE,160,14.0,-999.0,59,-99.99,,,0.00,meteohub,2013-03-10 12:53:00,
2013-03-10 07:58:00,54.3,40.3,29.83,SE,130,10.0,-999.0,59,-99.99,,,0.00,meteohub,2013-03-10 12:58:00,
2013-03-10 08:03:00,54.3,40.3,29.83,SSE,153,6.0,-999.0,59,-99.99,,,0.00,meteohub,2013-03-10 13:03:00,
2013-03-10 08:08:00,54.5,40.1,29.83,SSE,162,10.0,-999.0,58,-99.99,,,0.00,meteohub,2013-03-10 13:08:00,
2013-03-10 08:13:00,54.5,40.1,29.83,South,175,6.0,-999.0,58,-99.99,,,0.00,meteohub,2013-03-10 13:13:00,
2013-03-10 08:18:00,54.7,40.3,29.83,SE,143,8.0,15.0,58,-99.99,,,0.00,meteohub,2013-03-10 13:18:00,
2013-03-10 08:23:00,54.9,40.3,29.83,SSE,166,10.0,15.0,58,-99.99,,,0.00,meteohub,2013-03-10 13:23:00,
2013-03-10 08:29:00,54.9,40.3,29.84,South,176,7.0,20.0,58,-99.99,,,0.00,meteohub,2013-03-10 13:29:00,
2013-03-10 08:34:00,55.0,40.5,29.84,SSE,160,6.0,20.0,58,-99.99,,,0.00,meteohub,2013-03-10 13:34:00,
2013-03-10 08:39:00,55.0,40.5,29.84,SSW,202,7.0,20.0,58,-99.99,,,0.00,meteohub,2013-03-10 13:39:00,
2013-03-10 08:44:00,55.0,40.5,29.84,SSE,163,8.0,16.0,58,-99.99,,,0.00,meteohub,2013-03-10 13:44:00,
2013-03-10 08:49:00,55.2,40.6,29.84,SE,146,9.0,20.0,58,-99.99,,,0.00,meteohub,2013-03-10 13:49:00,
2013-03-10 08:54:00,55.4,40.8,29.83,South,184,9.0,20.0,58,-99.99,,,0.00,meteohub,2013-03-10 13:54:00,
2013-03-10 08:59:00,55.6,41.0,29.83,ESE,114,9.0,20.0,58,-99.99,,,0.00,meteohub,2013-03-10 13:59:00,
2013-03-10 09:04:00,55.6,41.0,29.84,South,182,6.0,20.0,58,0.00,,,0.00,meteohub,2013-03-10 14:04:00,
2013-03-10 09:09:00,55.6,40.6,29.84,SSE,151,12.0,20.0,57,0.00,,,0.00,meteohub,2013-03-10 14:09:00,
2013-03-10 09:14:00,55.6,41.0,29.84,South,174,6.0,20.0,58,0.00,,,0.00,meteohub,2013-03-10 14:14:00,
2013-03-10 09:19:00,55.8,41.2,29.84,South,187,14.0,21.0,58,0.00,,,0.00,meteohub,2013-03-10 14:19:00,
2013-03-10 09:24:00,55.8,41.2,29.84,SE,136,11.0,22.0,58,0.00,,,0.00,meteohub,2013-03-10 14:24:00,
2013-03-10 09:29:00,56.1,41.2,29.83,SSW,205,4.0,22.0,57,0.00,,,0.00,meteohub,2013-03-10 14:29:00,
2013-03-10 09:34:00,56.1,41.2,29.84,SSE,159,10.0,22.0,57,0.00,,,0.00,meteohub,2013-03-10 14:34:00,
2013-03-10 09:39:00,56.1,41.2,29.84,South,171,8.0,22.0,57,0.00,,,0.00,meteohub,2013-03-10 14:39:00,
2013-03-10 09:44:00,56.1,41.5,29.84,SSE,168,8.0,22.0,58,0.00,,,0.00,meteohub,2013-03-10 14:44:00,
2013-03-10 09:50:00,56.5,41.9,29.83,SSE,150,6.0,20.0,58,0.00,,,0.00,meteohub,2013-03-10 14:50:00,
2013-03-10 09:55:00,56.7,42.1,29.83,SSE,163,9.0,20.0,58,0.00,,,0.00,meteohub,2013-03-10 14:55:00,
2013-03-10 10:00:00,56.7,42.1,29.83,South,186,20.0,20.0,58,0.00,,,0.00,meteohub,2013-03-10 15:00:00,
2013-03-10 10:05:00,56.7,42.1,29.83,SE,126,20.0,25.0,58,0.00,,,0.00,meteohub,2013-03-10 15:05:00,
2013-03-10 10:10:00,56.8,42.3,29.83,South,180,6.0,25.0,58,0.00,,,0.00,meteohub,2013-03-10 15:10:00,
2013-03-10 10:15:00,56.8,42.3,29.83,South,171,8.0,24.0,58,0.00,,,0.00,meteohub,2013-03-10 15:15:00,
2013-03-10 10:20:00,57.0,42.4,29.83,South,173,12.0,24.0,58,0.00,,,0.00,meteohub,2013-03-10 15:20:00,
2013-03-10 10:25:00,57.0,42.8,29.83,SSE,160,5.0,24.0,59,0.00,,,0.00,meteohub,2013-03-10 15:25:00,
2013-03-10 10:30:00,57.0,42.8,29.82,SE,144,7.0,24.0,59,0.00,,,0.00,meteohub,2013-03-10 15:30:00,
2013-03-10 10:35:00,57.4,43.2,29.82,South,175,14.0,19.0,59,0.00,,,0.00,meteohub,2013-03-10 15:35:00,
2013-03-10 10:40:00,57.9,43.2,29.81,South,176,8.0,18.0,58,0.00,,,0.00,meteohub,2013-03-10 15:40:00,
2013-03-10 10:45:00,59.0,44.2,29.81,SSW,201,7.0,22.0,58,0.00,,,0.00,meteohub,2013-03-10 15:45:00,
2013-03-10 10:50:00,59.5,44.2,29.80,SSE,148,19.0,22.0,57,0.00,,,0.00,meteohub,2013-03-10 15:50:00,
2013-03-10 10:56:00,59.9,44.6,29.81,SSE,161,13.0,23.0,57,0.00,,,0.00,meteohub,2013-03-10 15:56:00,
2013-03-10 11:01:00,60.4,45.1,29.81,SSE,168,9.0,23.0,57,0.00,,,0.00,meteohub,2013-03-10 16:01:00,
2013-03-10 11:06:00,60.6,45.3,29.80,SSW,192,6.0,23.0,57,0.00,,,0.00,meteohub,2013-03-10 16:06:00,
2013-03-10 11:11:00,60.4,45.1,29.80,SSW,194,6.0,22.0,57,0.00,,,0.00,meteohub,2013-03-10 16:11:00,
2013-03-10 11:16:00,60.6,45.3,29.80,South,171,11.0,21.0,57,0.00,,,0.00,meteohub,2013-03-10 16:16:00,
2013-03-10 11:21:00,61.2,45.3,29.79,SSW,193,11.0,21.0,56,0.00,,,0.00,meteohub,2013-03-10 16:21:00,
2013-03-10 11:26:00,61.3,45.5,29.79,SSW,205,8.0,20.0,56,0.00,,,0.00,meteohub,2013-03-10 16:26:00,
2013-03-10 11:31:00,61.3,46.0,29.79,SSE,161,6.0,20.0,57,0.00,,,0.00,meteohub,2013-03-10 16:31:00,
2013-03-10 11:36:00,61.2,45.9,29.79,SSE,147,7.0,26.0,57,0.00,,,0.00,meteohub,2013-03-10 16:36:00,
2013-03-10 11:41:00,61.3,46.0,29.80,South,190,14.0,26.0,57,0.00,,,0.00,meteohub,2013-03-10 16:41:00,
2013-03-10 11:46:00,61.9,46.9,29.80,South,173,9.0,26.0,58,0.00,,,0.00,meteohub,2013-03-10 16:46:00,
2013-03-10 11:51:00,62.2,46.8,29.80,South,181,11.0,22.0,57,0.00,,,0.00,meteohub,2013-03-10 16:51:00,
2013-03-10 11:57:00,62.1,46.6,29.81,SSE,157,20.0,22.0,57,0.00,,,0.00,meteohub,2013-03-10 16:57:00,
2013-03-10 12:02:00,61.7,46.4,29.81,SSE,149,15.0,22.0,57,0.00,,,0.00,meteohub,2013-03-10 17:02:00,
2013-03-10 12:07:00,61.3,46.0,29.81,SSW,213,10.0,26.0,57,0.00,,,0.00,meteohub,2013-03-10 17:07:00,
2013-03-10 12:12:00,61.3,46.0,29.81,South,174,7.0,26.0,57,0.00,,,0.00,meteohub,2013-03-10 17:12:00,
2013-03-10 12:17:00,61.0,45.7,29.81,South,185,12.0,27.0,57,0.00,,,0.00,meteohub,2013-03-10 17:17:00,
2013-03-10 12:22:00,60.6,45.3,29.80,South,173,9.0,27.0,57,0.00,,,0.00,meteohub,2013-03-10 17:22:00,
2013-03-10 12:27:00,60.6,45.3,29.80,South,176,9.0,23.0,57,0.00,,,0.00,meteohub,2013-03-10 17:27:00,
2013-03-10 12:32:00,60.6,45.7,29.81,SE,141,6.0,24.0,58,0.00,,,0.00,meteohub,2013-03-10 17:32:00,
2013-03-10 12:37:00,60.6,45.3,29.80,South,172,8.0,24.0,57,0.00,,,0.00,meteohub,2013-03-10 17:37:00,
2013-03-10 12:42:00,61.0,45.7,29.79,SSE,165,12.0,24.0,57,0.00,,,0.00,meteohub,2013-03-10 17:42:00,
2013-03-10 12:47:00,61.9,45.5,29.79,SSE,157,14.0,22.0,55,0.00,,,0.00,meteohub,2013-03-10 17:47:00,
2013-03-10 12:52:00,62.2,45.3,29.79,SSE,151,11.0,21.0,54,0.00,,,0.00,meteohub,2013-03-10 17:52:00,
2013-03-10 12:57:00,62.2,45.0,29.78,South,171,12.0,21.0,53,0.00,,,0.00,meteohub,2013-03-10 17:57:00,
2013-03-10 13:02:00,62.4,45.5,29.78,SSE,155,9.0,22.0,54,0.00,,,0.00,meteohub,2013-03-10 18:02:00,
2013-03-10 13:07:00,62.8,45.3,29.77,South,170,15.0,22.0,53,0.00,,,0.00,meteohub,2013-03-10 18:07:00,
2013-03-10 13:12:00,62.8,45.3,29.76,SSE,163,14.0,21.0,53,0.00,,,0.00,meteohub,2013-03-10 18:12:00,
2013-03-10 13:17:00,63.3,45.3,29.76,South,188,8.0,24.0,52,0.00,,,0.00,meteohub,2013-03-10 18:17:00,
2013-03-10 13:22:00,63.7,45.1,29.75,SSE,165,7.0,24.0,51,0.00,,,0.00,meteohub,2013-03-10 18:22:00,
2013-03-10 13:27:00,63.9,44.8,29.75,South,178,18.0,24.0,50,0.00,,,0.00,meteohub,2013-03-10 18:27:00,
2013-03-10 13:32:00,63.3,45.0,29.74,SSW,208,13.0,25.0,51,0.00,,,0.00,meteohub,2013-03-10 18:32:00,
2013-03-10 13:37:00,63.5,45.5,29.73,SE,141,14.0,25.0,52,0.00,,,0.00,meteohub,2013-03-10 18:37:00,
2013-03-10 13:42:00,63.5,45.5,29.73,SSE,163,16.0,25.0,52,0.00,,,0.00,meteohub,2013-03-10 18:42:00,
2013-03-10 13:47:00,63.3,45.0,29.73,SSW,201,10.0,26.0,51,0.00,,,0.00,meteohub,2013-03-10 18:47:00,
2013-03-10 13:52:00,63.3,45.0,29.73,SE,141,14.0,26.0,51,0.00,,,0.00,meteohub,2013-03-10 18:52:00,
2013-03-10 13:57:00,63.3,45.0,29.72,SSW,208,9.0,26.0,51,0.00,,,0.00,meteohub,2013-03-10 18:57:00,
2013-03-10 14:02:00,63.1,44.8,29.72,SSE,155,12.0,24.0,51,0.00,,,0.00,meteohub,2013-03-10 19:02:00,
2013-03-10 14:07:00,63.0,44.1,29.72,SE,136,7.0,24.0,50,0.00,,,0.00,meteohub,2013-03-10 19:07:00,
2013-03-10 14:12:00,63.1,44.8,29.72,South,190,16.0,27.0,51,0.00,,,0.00,meteohub,2013-03-10 19:12:00,
2013-03-10 14:17:00,63.0,44.1,29.72,SSE,166,11.0,27.0,50,0.00,,,0.00,meteohub,2013-03-10 19:17:00,
2013-03-10 14:22:00,63.0,44.1,29.72,SSE,159,12.0,25.0,50,0.00,,,0.00,meteohub,2013-03-10 19:22:00,
2013-03-10 14:27:00,62.8,43.9,29.73,SSE,163,18.0,25.0,50,0.00,,,0.00,meteohub,2013-03-10 19:27:00,
2013-03-10 14:32:00,62.8,43.9,29.72,SSW,202,7.0,27.0,50,0.00,,,0.00,meteohub,2013-03-10 19:32:00,
2013-03-10 14:37:00,63.0,44.1,29.71,South,169,15.0,27.0,50,0.00,,,0.00,meteohub,2013-03-10 19:37:00,
2013-03-10 14:42:00,63.0,44.1,29.71,SSE,164,15.0,27.0,50,0.00,,,0.00,meteohub,2013-03-10 19:42:00,
2013-03-10 14:48:00,63.1,44.2,29.71,SSW,197,19.0,22.0,50,0.00,,,0.00,meteohub,2013-03-10 19:48:00,
2013-03-10 14:53:00,63.1,44.2,29.71,South,175,10.0,22.0,50,0.00,,,0.00,meteohub,2013-03-10 19:53:00,
2013-03-10 14:58:00,63.1,44.8,29.71,SSE,155,8.0,21.0,51,0.00,,,0.00,meteohub,2013-03-10 19:58:00,
2013-03-10 15:04:00,63.1,44.8,29.71,South,174,16.0,21.0,51,0.00,,,0.00,meteohub,2013-03-10 20:04:00,
2013-03-10 15:09:00,63.1,44.8,29.70,SSE,153,22.0,26.0,51,0.00,,,0.00,meteohub,2013-03-10 20:09:00,
2013-03-10 15:14:00,63.1,44.8,29.70,SE,140,9.0,30.0,51,0.00,,,0.00,meteohub,2013-03-10 20:14:00,
2013-03-10 15:19:00,63.1,44.8,29.70,South,183,13.0,30.0,51,0.00,,,0.00,meteohub,2013-03-10 20:19:00,
2013-03-10 15:25:00,63.1,44.8,29.69,SE,138,16.0,30.0,51,0.00,,,0.00,meteohub,2013-03-10 20:25:00,
2013-03-10 15:30:00,63.1,44.8,29.69,SSW,195,9.0,26.0,51,0.00,,,0.00,meteohub,2013-03-10 20:30:00,
2013-03-10 15:35:00,63.1,44.8,29.69,ESE,117,6.0,26.0,51,0.00,,,0.00,meteohub,2013-03-10 20:35:00,
2013-03-10 15:40:00,63.1,44.8,29.68,SSE,147,7.0,25.0,51,0.00,,,0.00,meteohub,2013-03-10 20:40:00,
2013-03-10 15:46:00,63.1,44.8,29.68,SSE,150,16.0,25.0,51,0.00,,,0.00,meteohub,2013-03-10 20:46:00,
2013-03-10 15:51:00,63.1,44.8,29.67,South,169,11.0,24.0,51,0.00,,,0.00,meteohub,2013-03-10 20:51:00,
2013-03-10 15:57:00,63.1,44.8,29.67,SE,145,8.0,23.0,51,0.00,,,0.00,meteohub,2013-03-10 20:57:00,
2013-03-10 16:02:00,63.0,45.1,29.66,SSE,155,6.0,23.0,52,0.00,,,0.00,meteohub,2013-03-10 21:02:00,
2013-03-10 16:07:00,63.0,44.6,29.67,South,174,9.0,19.0,51,0.00,,,0.00,meteohub,2013-03-10 21:07:00,
2013-03-10 16:12:00,63.0,44.6,29.67,SSE,165,16.0,21.0,51,0.00,,,0.00,meteohub,2013-03-10 21:12:00,
2013-03-10 16:17:00,63.0,44.6,29.67,SSE,148,10.0,21.0,51,0.00,,,0.00,meteohub,2013-03-10 21:17:00,
2013-03-10 16:23:00,63.1,44.2,29.67,SSE,158,16.0,21.0,50,0.00,,,0.00,meteohub,2013-03-10 21:23:00,
2013-03-10 16:28:00,63.1,44.2,29.67,SSW,201,8.0,21.0,50,0.00,,,0.00,meteohub,2013-03-10 21:28:00,
2013-03-10 16:33:00,63.1,44.2,29.67,SE,146,8.0,21.0,50,0.00,,,0.00,meteohub,2013-03-10 21:33:00,
2013-03-10 16:38:00,63.1,43.7,29.66,SE,128,7.0,22.0,49,0.00,,,0.00,meteohub,2013-03-10 21:38:00,
2013-03-10 16:43:00,63.0,44.1,29.66,SSW,197,12.0,23.0,50,0.00,,,0.00,meteohub,2013-03-10 21:43:00,
2013-03-10 16:49:00,62.8,43.9,29.65,South,180,11.0,23.0,50,0.00,,,0.00,meteohub,2013-03-10 21:49:00,
2013-03-10 16:54:00,62.8,43.9,29.65,SE,128,15.0,23.0,50,0.00,,,0.00,meteohub,2013-03-10 21:54:00,
2013-03-10 16:59:00,62.8,43.9,29.65,South,177,11.0,20.0,50,0.00,,,0.00,meteohub,2013-03-10 21:59:00,
2013-03-10 17:01:00,62.8,43.9,29.65,ESE,115,5.0,20.0,50,0.00,,,0.00,meteohub,2013-03-10 22:01:00,
2013-03-10 17:07:00,62.8,43.9,29.65,SE,139,7.0,20.0,50,0.00,,,0.00,meteohub,2013-03-10 22:07:00,
2013-03-10 17:17:00,62.8,43.3,29.66,SSE,155,15.0,20.0,49,0.00,,,0.00,meteohub,2013-03-10 22:17:00,
2013-03-10 17:22:00,63.0,43.5,29.66,SSE,156,10.0,20.0,49,0.00,,,0.00,meteohub,2013-03-10 22:22:00,
2013-03-10 17:27:00,63.0,43.0,29.66,ESE,117,6.0,20.0,48,0.00,,,0.00,meteohub,2013-03-10 22:27:00,
2013-03-10 17:32:00,63.1,43.2,29.66,South,179,10.0,20.0,48,0.00,,,0.00,meteohub,2013-03-10 22:32:00,
2013-03-10 17:37:00,63.1,43.2,29.67,South,180,8.0,20.0,48,0.00,,,0.00,meteohub,2013-03-10 22:37:00,
2013-03-10 17:42:00,63.0,43.5,29.67,SSW,192,13.0,20.0,49,0.00,,,0.00,meteohub,2013-03-10 22:42:00,
2013-03-10 17:47:00,63.0,43.5,29.66,SSW,195,12.0,19.0,49,0.00,,,0.00,meteohub,2013-03-10 22:47:00,
2013-03-10 17:52:00,63.0,43.5,29.67,South,182,10.0,19.0,49,0.00,,,0.00,meteohub,2013-03-10 22:52:00,
2013-03-10 17:57:00,62.8,43.3,29.67,SSW,193,7.0,19.0,49,0.00,,,0.00,meteohub,2013-03-10 22:57:00,
2013-03-10 18:02:00,62.6,43.7,29.68,SSW,204,11.0,18.0,50,0.00,,,0.00,meteohub,2013-03-10 23:02:00,
2013-03-10 18:07:00,62.4,44.1,29.69,SW,217,12.0,20.0,51,0.00,,,0.00,meteohub,2013-03-10 23:07:00,
2013-03-10 18:12:00,62.2,44.4,29.69,SSW,194,5.0,20.0,52,0.00,,,0.00,meteohub,2013-03-10 23:12:00,
2013-03-10 18:17:00,61.9,44.6,29.70,SSE,147,8.0,21.0,53,0.00,,,0.00,meteohub,2013-03-10 23:17:00,
2013-03-10 18:23:00,61.5,44.8,29.70,South,173,9.0,21.0,54,0.00,,,0.00,meteohub,2013-03-10 23:23:00,
2013-03-10 18:28:00,61.0,46.0,29.70,SW,236,7.0,21.0,58,0.00,,,0.00,meteohub,2013-03-10 23:28:00,
2013-03-10 18:33:00,59.2,47.8,29.70,WSW,245,10.0,21.0,66,0.00,,,0.00,meteohub,2013-03-10 23:33:00,
2013-03-10 18:38:00,57.4,49.1,29.70,SW,225,5.0,21.0,74,0.00,,,0.00,meteohub,2013-03-10 23:38:00,
2013-03-10 18:44:00,56.5,49.6,29.70,SSW,196,11.0,21.0,78,0.01,,,0.01,meteohub,2013-03-10 23:44:00,
2013-03-10 18:49:00,55.9,49.8,29.70,South,187,10.0,21.0,80,0.02,,,0.02,meteohub,2013-03-10 23:49:00,
2013-03-10 18:54:00,55.6,50.5,29.70,South,191,8.0,15.0,83,0.02,,,0.02,meteohub,2013-03-10 23:54:00,
2013-03-10 18:59:00,55.2,50.5,29.70,SSW,203,5.0,13.0,84,0.02,,,0.02,meteohub,2013-03-10 23:59:00,
2013-03-10 19:04:00,55.2,50.7,29.70,South,188,7.0,11.0,85,0.02,,,0.02,meteohub,2013-03-11 00:04:00,
2013-03-10 19:09:00,55.4,50.9,29.70,South,178,8.0,11.0,85,0.02,,,0.02,meteohub,2013-03-11 00:09:00,
2013-03-10 19:15:00,55.2,50.7,29.70,SSE,163,6.0,13.0,85,0.02,,,0.02,meteohub,2013-03-11 00:15:00,
2013-03-10 19:20:00,55.2,51.1,29.69,South,188,11.0,13.0,86,0.02,,,0.02,meteohub,2013-03-11 00:20:00,
2013-03-10 19:25:00,55.2,51.1,29.69,South,186,3.0,13.0,86,0.02,,,0.02,meteohub,2013-03-11 00:25:00,
2013-03-10 19:31:00,55.2,51.1,29.68,SSW,192,9.0,14.0,86,0.02,,,0.02,meteohub,2013-03-11 00:31:00,
2013-03-10 19:36:00,55.2,50.7,29.68,SSE,168,11.0,14.0,85,0.01,,,0.02,meteohub,2013-03-11 00:36:00,
2013-03-10 19:41:00,55.2,50.7,29.68,South,185,7.0,18.0,85,0.02,,,0.03,meteohub,2013-03-11 00:41:00,
2013-03-10 19:46:00,55.2,50.5,29.69,SSE,159,3.0,18.0,84,0.01,,,0.03,meteohub,2013-03-11 00:46:00,
2013-03-10 19:51:00,55.2,50.5,29.69,SSW,194,11.0,18.0,84,0.01,,,0.03,meteohub,2013-03-11 00:51:00,
2013-03-10 19:57:00,55.2,50.5,29.70,South,170,7.0,18.0,84,0.01,,,0.03,meteohub,2013-03-11 00:57:00,
2013-03-10 20:02:00,55.2,50.5,29.69,SSE,162,6.0,18.0,84,0.01,,,0.03,meteohub,2013-03-11 01:02:00,
2013-03-10 20:07:00,55.2,50.5,29.69,SSE,168,7.0,19.0,84,0.01,,,0.03,meteohub,2013-03-11 01:07:00,
2013-03-10 20:12:00,55.2,50.5,29.69,South,171,11.0,19.0,84,0.01,,,0.03,meteohub,2013-03-11 01:12:00,
2013-03-10 20:17:00,55.2,50.5,29.69,SSE,150,5.0,20.0,84,0.01,,,0.03,meteohub,2013-03-11 01:17:00,
2013-03-10 20:22:00,55.0,50.4,29.69,SSE,165,7.0,20.0,84,0.01,,,0.03,meteohub,2013-03-11 01:22:00,
2013-03-10 20:27:00,55.2,50.2,29.69,SSE,157,6.0,20.0,83,0.01,,,0.03,meteohub,2013-03-11 01:27:00,
2013-03-10 20:33:00,55.2,50.2,29.68,SSE,167,11.0,20.0,83,0.01,,,0.03,meteohub,2013-03-11 01:33:00,
2013-03-10 20:38:00,55.6,50.2,29.68,SSW,194,11.0,20.0,82,0.00,,,0.03,meteohub,2013-03-11 01:38:00,
2013-03-10 20:43:00,55.6,50.2,29.68,SSE,166,13.0,21.0,82,0.00,,,0.03,meteohub,2013-03-11 01:43:00,
2013-03-10 20:48:00,55.8,50.0,29.68,South,170,11.0,21.0,81,0.00,,,0.03,meteohub,2013-03-11 01:48:00,
2013-03-10 20:53:00,55.8,50.4,29.68,SE,142,9.0,21.0,82,0.00,,,0.03,meteohub,2013-03-11 01:53:00,
2013-03-10 20:58:00,55.8,50.0,29.68,SSW,200,11.0,20.0,81,0.00,,,0.03,meteohub,2013-03-11 01:58:00,
2013-03-10 21:04:00,55.9,49.8,29.68,SSW,198,12.0,20.0,80,0.00,,,0.03,meteohub,2013-03-11 02:04:00,
2013-03-10 21:09:00,55.9,50.2,29.68,South,175,5.0,20.0,81,0.00,,,0.03,meteohub,2013-03-11 02:09:00,
2013-03-10 21:14:00,55.8,50.0,29.68,SSE,160,14.0,23.0,81,0.00,,,0.03,meteohub,2013-03-11 02:14:00,
2013-03-10 21:19:00,55.8,50.0,29.68,SW,215,10.0,23.0,81,0.00,,,0.03,meteohub,2013-03-11 02:19:00,
2013-03-10 21:25:00,55.8,50.4,29.68,SSW,196,8.0,19.0,82,0.00,,,0.03,meteohub,2013-03-11 02:25:00,
2013-03-10 21:30:00,55.2,50.5,29.68,SSE,162,5.0,25.0,84,0.00,,,0.03,meteohub,2013-03-11 02:30:00,
2013-03-10 21:35:00,55.0,50.5,29.68,SSW,192,7.0,25.0,85,0.00,,,0.03,meteohub,2013-03-11 02:35:00,
2013-03-10 21:40:00,55.0,50.5,29.68,SE,142,14.0,25.0,85,0.00,,,0.03,meteohub,2013-03-11 02:40:00,
2013-03-10 21:45:00,54.9,50.7,29.68,SE,134,6.0,25.0,86,0.00,,,0.03,meteohub,2013-03-11 02:45:00,
2013-03-10 21:51:00,54.5,50.7,29.69,SSW,200,7.0,19.0,87,0.00,,,0.03,meteohub,2013-03-11 02:51:00,
2013-03-10 21:56:00,54.3,50.9,29.69,South,184,8.0,20.0,88,0.01,,,0.04,meteohub,2013-03-11 02:56:00,
2013-03-10 22:01:00,54.1,50.9,29.69,SSW,204,12.0,20.0,89,0.01,,,0.04,meteohub,2013-03-11 03:01:00,
2013-03-10 22:07:00,54.0,51.1,29.70,South,176,7.0,19.0,90,0.01,,,0.04,meteohub,2013-03-11 03:07:00,
2013-03-10 22:12:00,53.8,51.3,29.69,South,169,12.0,19.0,91,0.02,,,0.05,meteohub,2013-03-11 03:12:00,
2013-03-10 22:17:00,54.0,51.4,29.69,SSE,163,9.0,18.0,91,0.02,,,0.05,meteohub,2013-03-11 03:17:00,
2013-03-10 22:22:00,53.8,51.3,29.69,South,173,9.0,18.0,91,0.02,,,0.05,meteohub,2013-03-11 03:22:00,
2013-03-10 22:27:00,53.8,51.4,29.68,South,189,6.0,18.0,92,0.02,,,0.05,meteohub,2013-03-11 03:27:00,
2013-03-10 22:32:00,53.8,51.4,29.68,SSW,193,2.0,14.0,92,0.02,,,0.05,meteohub,2013-03-11 03:32:00,
2013-03-10 22:37:00,53.8,51.4,29.68,South,175,8.0,14.0,92,0.02,,,0.05,meteohub,2013-03-11 03:37:00,
2013-03-10 22:42:00,53.8,51.4,29.68,South,180,5.0,14.0,92,0.02,,,0.05,meteohub,2013-03-11 03:42:00,
2013-03-10 22:47:00,53.8,51.4,29.68,South,179,4.0,13.0,92,0.02,,,0.05,meteohub,2013-03-11 03:47:00,
2013-03-10 22:52:00,53.8,51.4,29.69,SSE,159,8.0,13.0,92,0.01,,,0.05,meteohub,2013-03-11 03:52:00,
2013-03-10 22:57:00,53.8,51.4,29.69,South,182,10.0,13.0,92,0.01,,,0.05,meteohub,2013-03-11 03:57:00,
2013-03-10 23:00:00,53.8,51.4,29.69,SE,137,5.0,12.0,92,0.01,,,0.05,meteohub,2013-03-11 04:00:00,
2013-03-10 23:01:00,53.8,51.4,29.68,South,172,6.0,12.0,92,0.01,,,0.05,meteohub,2013-03-11 04:01:00,
2013-03-10 23:04:00,53.8,51.4,29.68,South,178,5.0,12.0,92,0.01,,,0.05,meteohub,2013-03-11 04:04:00,
2013-03-10 23:05:00,53.8,51.4,29.68,SSW,200,9.0,12.0,92,0.01,,,0.05,meteohub,2013-03-11 04:05:00,
2013-03-10 23:11:00,53.8,51.4,29.68,South,187,9.0,12.0,92,0.00,,,0.05,meteohub,2013-03-11 04:11:00,
2013-03-10 23:16:00,54.1,51.6,29.68,South,180,6.0,15.0,91,0.00,,,0.05,meteohub,2013-03-11 04:16:00,
2013-03-10 23:22:00,54.5,51.6,29.68,South,171,13.0,20.0,90,0.00,,,0.05,meteohub,2013-03-11 04:22:00,
2013-03-10 23:27:00,54.5,51.3,29.68,South,190,9.0,20.0,89,0.00,,,0.05,meteohub,2013-03-11 04:27:00,
2013-03-10 23:32:00,54.7,51.4,29.68,SSE,165,5.0,20.0,89,0.00,,,0.05,meteohub,2013-03-11 04:32:00,
2013-03-10 23:37:00,54.7,51.4,29.68,SSW,212,6.0,20.0,89,0.00,,,0.05,meteohub,2013-03-11 04:37:00,
2013-03-10 23:42:00,54.5,51.3,29.68,South,191,6.0,20.0,89,0.00,,,0.05,meteohub,2013-03-11 04:42:00,
2013-03-10 23:47:00,54.3,51.1,29.68,SW,234,4.0,15.0,89,0.00,,,0.05,meteohub,2013-03-11 04:47:00,
2013-03-10 23:52:00,54.3,51.1,29.68,SSW,209,5.0,15.0,89,0.00,,,0.05,meteohub,2013-03-11 04:52:00,
2013-03-10 23:58:00,54.1,50.9,29.68,South,185,7.0,16.0,89,0.00,,,0.05,meteohub,2013-03-11 04:58:00,